Simultaneous Nadir Overpasses (SNOs) Predictions

Prediction of SNOs near equator between NOAA-19 and NPP Satellite Orbit:

Table of predicted SNOs near equator for the next 14.0 days since TLE Epoch: 5/20/2013
Index Date (NOAA-19) Time (NOAA-19) NOAA-19 Lat,Lon Date (NPP) Time (NPP) NPP Lat,Lon Distance(km) Time Diff (sec)
1 05/21/2013 15:35:06 29.96, -34.44 05/21/2013 15:25:50 29.75, -35.44 98.75 556
2 05/21/2013 16:26:00 -29.99, 132.83 05/21/2013 16:16:32 -29.82, 131.88 93.81 568
3 05/21/2013 17:17:11 29.98, -59.97 05/21/2013 17:07:21 29.81, -60.83 85.18 590
4 05/21/2013 18:08:04 -29.96, 107.32 05/21/2013 17:58:04 -29.94, 106.47 82.04 600
5 06/03/2013 03:00:23 29.98, 154.31 06/03/2013 02:50:57 29.76, 153.31 99.22 566
6 06/03/2013 03:51:16 -29.97, -38.41 06/03/2013 03:41:38 -29.76, -39.36 94.47 578
7 06/03/2013 04:42:27 29.95, 128.80 06/03/2013 04:32:27 29.77, 127.94 85.72 600




NCC Satellite Simultaneous Nadir Overpasses (SNOs) Prediction Service
